This demonstration page uses our WeatherBlox Daily Observations layout. Learn more.

Left ArrowRight Arrow

41.55636, -103.73856

Hourly Observations for December 20, 2017

Temp ( °F °C ) Dew Point ( °F °C ) Humidity (%) Winds ( mph kmh ) Pressure ( in mb ) Visibility ( mi km ) Precip ( " mm )
12:53 am 00:53 Clear 30 -1.1 25 -3.9 82 82 ESE 12 19 29.86 1011 10 16 N/A
1:53 am 01:53 Clear 30 -1.1 25 -3.9 82 82 ESE 10 17 29.83 1010 10 16 N/A
2:53 am 02:53 Mostly Clear 31 -0.6 26 -3.3 82 82 ESE 10 17 29.80 1009 10 16 N/A
3:53 am 03:53 Clear 31 -0.6 26 -3.3 82 82 E 7 11 29.79 1009 10 16 N/A
4:53 am 04:53 Clear 30 -1.1 26 -3.3 85 85 SE 6 9 29.79 1009 10 16 N/A
5:53 am 05:53 Clear 30 -1.1 26 -3.3 85 85 E 6 9 29.82 1010 10 16 N/A
6:53 am 06:53 Clear 28 -2.2 24 -4.4 85 85 E 7 11 29.82 1010 10 16 N/A
7:53 am 07:53 Sunny 28 -2.2 24 -4.4 85 85 NE 3 6 29.83 1010 10 16 N/A
8:53 am 08:53 Sunny 32 undefined 25 -3.9 75 75 SE 5 7 29.82 1010 10 16 N/A
9:53 am 09:53 Sunny 38 3.3 27 -2.8 65 65 SE 5 7 29.79 1009 10 16 N/A
10:53 am 10:53 Sunny 40 4.4 27 -2.8 60 60 E 5 7 29.74 1007 10 16 N/A
11:53 am 11:53 Sunny 48 8.9 28 -2.2 46 46 E 7 11 29.67 1005 10 16 N/A
12:53 pm 12:53 Sunny 56 13.3 28 -2.2 34 34 ESE 9 15 29.59 1002 10 16 N/A
1:53 pm 13:53 Partly Cloudy 62 16.7 26 -3.3 25 25 E 7 11 29.56 1001 10 16 N/A
2:53 pm 14:53 Sunny 64 17.8 25 -3.9 23 23 E 8 13 29.54 1000 10 16 N/A
3:53 pm 15:53 Sunny 56 13.3 25 -3.9 30 30 ESE 16 26 29.57 1001 10 16 N/A
4:53 pm 16:53 Mostly Clear 54 12.2 19 -7.2 25 25 SSW 3 6 29.60 1002 10 16 N/A
5:53 pm 17:53 Mostly Clear 49 9.4 25 -3.9 39 39 ESE 6 9 29.63 1003 10 16 N/A
6:53 pm 18:53 Mostly Clear 45 7.2 25 -3.9 46 46 E 8 13 29.65 1004 10 16 N/A
7:53 pm 19:53 Cloudy 45 7.2 25 -3.9 46 46 VRB 3 6 29.67 1005 10 16 N/A
8:43 pm 20:43 Cloudy 47 8.3 24 -4.4 41 41 NNE 26 43 29.68 1005 10 16 N/A
8:53 pm 20:53 Cloudy 43 6.1 24 -4.4 47 47 NNE 29 46 29.71 1006 8 13 N/A
9:53 pm 21:53 Partly Cloudy 35 1.7 23 -5 61 61 N 28 44 29.77 1008 10 16 N/A
10:09 pm 22:09 Mostly Clear 35 1.7 23 -5 61 61 WNW 8 13 29.88 1012 10 16 N/A
10:53 pm 22:53 Cloudy 33 0.6 22 -5.6 64 64 NNW 16 26 29.85 1011 10 16 N/A
11:53 pm 23:53 Cloudy 30 -1.1 20 -6.7 66 66 N 16 26 29.86 1011 10 16 N/A

Powered by AerisWeather